Time,TemperatureF,DewpointF,PressureIn,WindDirection,WindDirectionDegrees,WindSpeedMPH,WindSpeedGustMPH,Humidity,HourlyPrecipIn,Conditions,Clouds,dailyrainin,SoftwareType,DateUTC
2013-02-20 00:00:00,38.2,32.9,29.91,North,0,0.0,0.0,81,0.00,,,0.00,WUHU216HW,2013-02-20 05:00:00,
2013-02-20 00:01:00,38.0,32.7,29.91,North,0,0.0,0.0,81,0.00,,,0.00,WUHU216HW,2013-02-20 05:01:00,
2013-02-20 00:06:00,37.8,32.5,29.91,North,0,0.0,0.0,81,0.00,,,0.00,WUHU216HW,2013-02-20 05:06:00,
2013-02-20 00:11:00,37.8,32.5,29.91,North,0,0.0,0.0,81,0.00,,,0.00,WUHU216HW,2013-02-20 05:11:00,
2013-02-20 00:16:00,37.6,32.3,29.91,North,0,0.0,0.0,81,0.00,,,0.00,WUHU216HW,2013-02-20 05:16:00,
2013-02-20 00:21:00,37.6,32.3,29.91,North,0,0.0,0.0,81,0.00,,,0.00,WUHU216HW,2013-02-20 05:21:00,
2013-02-20 00:26:00,37.4,32.1,29.92,North,0,0.0,0.0,81,0.00,,,0.00,WUHU216HW,2013-02-20 05:26:00,
2013-02-20 00:31:00,37.4,32.1,29.92,North,0,0.0,0.0,81,0.00,,,0.00,WUHU216HW,2013-02-20 05:31:00,
2013-02-20 00:36:00,37.3,31.7,29.92,North,0,0.0,0.0,80,0.00,,,0.00,WUHU216HW,2013-02-20 05:36:00,
2013-02-20 00:41:00,37.1,31.5,29.92,North,0,0.0,0.0,80,0.00,,,0.00,WUHU216HW,2013-02-20 05:41:00,
2013-02-20 00:46:00,37.1,31.5,29.92,North,0,0.0,0.0,80,0.00,,,0.00,WUHU216HW,2013-02-20 05:46:00,
2013-02-20 00:51:00,37.1,31.5,29.92,North,0,0.0,0.0,80,0.00,,,0.00,WUHU216HW,2013-02-20 05:51:00,
2013-02-20 00:56:00,36.9,31.3,29.93,North,0,0.0,0.0,80,0.00,,,0.00,WUHU216HW,2013-02-20 05:56:00,
2013-02-20 01:01:00,36.9,31.3,29.93,North,0,0.0,0.0,80,0.00,,,0.00,WUHU216HW,2013-02-20 06:01:00,
2013-02-20 01:06:00,36.9,31.3,29.93,North,0,0.0,0.0,80,0.00,,,0.00,WUHU216HW,2013-02-20 06:06:00,
2013-02-20 01:11:00,36.9,31.3,29.93,North,0,0.0,0.0,80,0.00,,,0.00,WUHU216HW,2013-02-20 06:11:00,
2013-02-20 01:16:00,36.9,31.3,29.93,North,0,0.0,0.0,80,0.00,,,0.00,WUHU216HW,2013-02-20 06:16:00,
2013-02-20 01:21:00,36.7,31.1,29.94,North,0,0.0,0.0,80,0.00,,,0.00,WUHU216HW,2013-02-20 06:21:00,
2013-02-20 01:26:00,36.7,31.1,29.94,North,0,0.0,0.0,80,0.00,,,0.00,WUHU216HW,2013-02-20 06:26:00,
2013-02-20 01:31:00,36.5,31.0,29.94,North,0,0.0,0.0,80,0.00,,,0.00,WUHU216HW,2013-02-20 06:31:00,
2013-02-20 01:36:00,36.4,30.4,29.94,North,0,0.0,0.0,79,0.00,,,0.00,WUHU216HW,2013-02-20 06:36:00,
2013-02-20 01:41:00,36.4,30.4,29.94,North,0,0.0,0.0,79,0.00,,,0.00,WUHU216HW,2013-02-20 06:41:00,
2013-02-20 01:46:00,36.4,30.2,29.94,North,0,0.0,0.0,78,0.00,,,0.00,WUHU216HW,2013-02-20 06:46:00,
2013-02-20 01:51:00,36.4,30.2,29.94,North,0,0.0,0.0,78,0.00,,,0.00,WUHU216HW,2013-02-20 06:51:00,
2013-02-20 01:56:00,36.5,30.0,29.94,North,0,0.0,0.0,77,0.00,,,0.00,WUHU216HW,2013-02-20 06:56:00,
2013-02-20 02:01:00,36.7,30.2,29.93,North,0,0.0,0.0,77,0.00,,,0.00,WUHU216HW,2013-02-20 07:01:00,
2013-02-20 02:06:00,36.7,29.9,29.93,North,0,0.0,0.0,76,0.00,,,0.00,WUHU216HW,2013-02-20 07:06:00,
2013-02-20 02:11:00,36.7,29.9,29.93,North,0,0.0,0.0,76,0.00,,,0.00,WUHU216HW,2013-02-20 07:11:00,
2013-02-20 02:17:00,36.7,29.9,29.93,North,0,0.0,0.0,76,0.00,,,0.00,WUHU216HW,2013-02-20 07:17:00,
2013-02-20 02:22:00,36.5,29.7,29.93,North,0,0.0,0.0,76,0.00,,,0.00,WUHU216HW,2013-02-20 07:22:00,
2013-02-20 02:27:00,36.5,29.7,29.93,North,0,0.0,0.0,76,0.00,,,0.00,WUHU216HW,2013-02-20 07:27:00,
2013-02-20 02:32:00,36.5,29.7,29.93,North,0,0.0,0.0,76,0.00,,,0.00,WUHU216HW,2013-02-20 07:32:00,
2013-02-20 02:37:00,36.4,29.5,29.93,North,0,0.0,0.0,76,0.00,,,0.00,WUHU216HW,2013-02-20 07:37:00,
2013-02-20 02:42:00,36.4,29.5,29.93,North,0,0.0,0.0,76,0.00,,,0.00,WUHU216HW,2013-02-20 07:42:00,
2013-02-20 02:47:00,36.4,29.5,29.93,North,0,0.0,0.0,76,0.00,,,0.00,WUHU216HW,2013-02-20 07:47:00,
2013-02-20 02:52:00,36.0,29.2,29.93,North,0,0.0,0.0,76,0.00,,,0.00,WUHU216HW,2013-02-20 07:52:00,
2013-02-20 02:57:00,35.8,29.0,29.93,North,0,0.0,0.0,76,0.00,,,0.00,WUHU216HW,2013-02-20 07:57:00,
2013-02-20 03:05:00,35.6,28.8,29.93,North,0,0.0,0.0,76,0.00,,,0.00,WUHU216HW,2013-02-20 08:05:00,
2013-02-20 03:10:00,35.5,28.6,29.93,North,0,0.0,0.0,76,0.00,,,0.00,WUHU216HW,2013-02-20 08:10:00,
2013-02-20 03:15:00,35.3,28.5,29.93,North,0,0.0,0.0,76,0.00,,,0.00,WUHU216HW,2013-02-20 08:15:00,
2013-02-20 03:20:00,35.3,28.7,29.93,North,0,0.0,0.0,77,0.00,,,0.00,WUHU216HW,2013-02-20 08:20:00,
2013-02-20 03:25:00,35.1,28.5,29.93,North,0,0.0,0.0,77,0.00,,,0.00,WUHU216HW,2013-02-20 08:25:00,
2013-02-20 03:30:00,35.1,28.5,29.94,North,0,0.0,0.0,77,0.00,,,0.00,WUHU216HW,2013-02-20 08:30:00,
2013-02-20 03:35:00,34.9,28.4,29.94,North,0,0.0,0.0,77,0.00,,,0.00,WUHU216HW,2013-02-20 08:35:00,
2013-02-20 03:40:00,34.9,28.7,29.94,North,0,0.0,0.0,78,0.00,,,0.00,WUHU216HW,2013-02-20 08:40:00,
2013-02-20 03:45:00,34.7,28.5,29.93,North,0,0.0,0.0,78,0.00,,,0.00,WUHU216HW,2013-02-20 08:45:00,
2013-02-20 03:50:00,34.6,28.4,29.93,North,0,0.0,0.0,78,0.00,,,0.00,WUHU216HW,2013-02-20 08:50:00,
2013-02-20 03:55:00,34.6,28.4,29.93,North,0,0.0,0.0,78,0.00,,,0.00,WUHU216HW,2013-02-20 08:55:00,
2013-02-20 04:00:00,34.4,28.2,29.93,North,0,0.0,0.0,78,0.00,,,0.00,WUHU216HW,2013-02-20 09:00:00,
2013-02-20 04:06:00,34.2,28.0,29.93,North,0,0.0,0.0,78,0.00,,,0.00,WUHU216HW,2013-02-20 09:06:00,
2013-02-20 04:11:00,34.2,28.0,29.93,North,0,0.0,0.0,78,0.00,,,0.00,WUHU216HW,2013-02-20 09:11:00,
2013-02-20 04:16:00,34.2,28.0,29.94,North,0,0.0,0.0,78,0.00,,,0.00,WUHU216HW,2013-02-20 09:16:00,
2013-02-20 04:21:00,34.0,27.8,29.94,North,0,0.0,0.0,78,0.00,,,0.00,WUHU216HW,2013-02-20 09:21:00,
2013-02-20 04:26:00,33.8,27.6,29.94,North,0,0.0,0.0,78,0.00,,,0.00,WUHU216HW,2013-02-20 09:26:00,
2013-02-20 04:31:00,33.8,27.6,29.94,North,0,0.0,0.0,78,0.00,,,0.00,WUHU216HW,2013-02-20 09:31:00,
2013-02-20 04:36:00,33.7,27.5,29.94,North,0,0.0,0.0,78,0.00,,,0.00,WUHU216HW,2013-02-20 09:36:00,
2013-02-20 04:41:00,33.7,27.5,29.94,North,0,0.0,0.0,78,0.00,,,0.00,WUHU216HW,2013-02-20 09:41:00,
2013-02-20 04:46:00,33.5,27.3,29.94,North,0,0.0,0.0,78,0.00,,,0.00,WUHU216HW,2013-02-20 09:46:00,
2013-02-20 04:51:00,33.5,27.3,29.94,North,0,0.0,0.0,78,0.00,,,0.00,WUHU216HW,2013-02-20 09:51:00,
2013-02-20 04:56:00,33.5,27.3,29.94,North,0,0.0,0.0,78,0.00,,,0.00,WUHU216HW,2013-02-20 09:56:00,
2013-02-20 05:01:00,33.3,27.5,29.94,North,0,0.0,0.0,79,0.00,,,0.00,WUHU216HW,2013-02-20 10:01:00,
2013-02-20 05:07:00,33.1,27.0,29.95,North,0,0.0,0.0,78,0.00,,,0.00,WUHU216HW,2013-02-20 10:07:00,
2013-02-20 05:12:00,33.1,27.0,29.95,North,0,0.0,0.0,78,0.00,,,0.00,WUHU216HW,2013-02-20 10:12:00,
2013-02-20 05:16:00,32.9,26.8,29.95,North,0,0.0,0.0,78,0.00,,,0.00,WUHU216HW,2013-02-20 10:16:00,
2013-02-20 05:22:00,32.8,26.6,29.95,North,0,0.0,0.0,78,0.00,,,0.00,WUHU216HW,2013-02-20 10:22:00,
2013-02-20 05:27:00,32.8,27.0,29.96,North,0,0.0,0.0,79,0.00,,,0.00,WUHU216HW,2013-02-20 10:27:00,
2013-02-20 05:32:00,32.8,27.0,29.96,North,0,0.0,0.0,79,0.00,,,0.00,WUHU216HW,2013-02-20 10:32:00,
2013-02-20 05:37:00,32.8,27.0,29.95,North,0,0.0,0.0,79,0.00,,,0.00,WUHU216HW,2013-02-20 10:37:00,
2013-02-20 05:42:00,32.6,26.8,29.95,North,0,0.0,0.0,79,0.00,,,0.00,WUHU216HW,2013-02-20 10:42:00,
2013-02-20 05:47:00,32.6,26.8,29.95,North,0,0.0,0.0,79,0.00,,,0.00,WUHU216HW,2013-02-20 10:47:00,
2013-02-20 05:52:00,32.4,26.6,29.95,North,0,0.0,0.0,79,0.00,,,0.00,WUHU216HW,2013-02-20 10:52:00,
2013-02-20 05:57:00,32.4,26.6,29.96,North,0,0.0,0.0,79,0.00,,,0.00,WUHU216HW,2013-02-20 10:57:00,
2013-02-20 06:02:00,32.2,26.5,29.96,North,0,0.0,0.0,79,0.00,,,0.00,WUHU216HW,2013-02-20 11:02:00,
2013-02-20 06:07:00,32.0,26.3,29.96,North,0,0.0,0.0,79,0.00,,,0.00,WUHU216HW,2013-02-20 11:07:00,
2013-02-20 06:12:00,32.0,26.3,29.96,North,0,0.0,0.0,79,0.00,,,0.00,WUHU216HW,2013-02-20 11:12:00,
2013-02-20 06:17:00,32.0,26.0,29.96,North,0,0.0,0.0,78,0.00,,,0.00,WUHU216HW,2013-02-20 11:17:00,
2013-02-20 06:22:00,31.9,25.8,29.96,North,0,0.0,0.0,78,0.00,,,0.00,WUHU216HW,2013-02-20 11:22:00,
2013-02-20 06:27:00,31.7,25.7,29.96,North,0,0.0,0.0,78,0.00,,,0.00,WUHU216HW,2013-02-20 11:27:00,
2013-02-20 06:32:00,31.5,25.5,29.96,North,0,0.0,0.0,78,0.00,,,0.00,WUHU216HW,2013-02-20 11:32:00,
2013-02-20 06:37:00,31.3,25.3,29.96,North,0,0.0,0.0,78,0.00,,,0.00,WUHU216HW,2013-02-20 11:37:00,
2013-02-20 06:42:00,31.3,25.3,29.96,North,0,0.0,0.0,78,0.00,,,0.00,WUHU216HW,2013-02-20 11:42:00,
2013-02-20 06:48:00,31.3,25.6,29.96,North,0,0.0,0.0,79,0.00,,,0.00,WUHU216HW,2013-02-20 11:48:00,
2013-02-20 06:53:00,31.3,25.6,29.96,North,0,0.0,0.0,79,0.00,,,0.00,WUHU216HW,2013-02-20 11:53:00,
2013-02-20 06:58:00,31.3,25.6,29.97,North,0,0.0,0.0,79,0.00,,,0.00,WUHU216HW,2013-02-20 11:58:00,
2013-02-20 07:03:00,31.1,25.4,29.97,North,0,0.0,0.0,79,0.00,,,0.00,WUHU216HW,2013-02-20 12:03:00,
2013-02-20 07:08:00,31.1,25.4,29.97,North,0,0.0,0.0,79,0.00,,,0.00,WUHU216HW,2013-02-20 12:08:00,
2013-02-20 07:13:00,31.1,25.4,29.98,North,0,0.0,0.0,79,0.00,,,0.00,WUHU216HW,2013-02-20 12:13:00,
2013-02-20 07:18:00,31.1,25.4,29.98,North,0,0.0,0.0,79,0.00,,,0.00,WUHU216HW,2013-02-20 12:18:00,
2013-02-20 07:23:00,31.0,25.2,29.98,North,0,0.0,0.0,79,0.00,,,0.00,WUHU216HW,2013-02-20 12:23:00,
2013-02-20 07:29:00,31.0,25.2,29.98,North,0,0.0,0.0,79,0.00,,,0.00,WUHU216HW,2013-02-20 12:29:00,
2013-02-20 07:34:00,31.0,25.2,29.99,North,0,0.0,0.0,79,0.00,,,0.00,WUHU216HW,2013-02-20 12:34:00,
2013-02-20 07:39:00,31.0,25.2,29.99,North,0,0.0,0.0,79,0.00,,,0.00,WUHU216HW,2013-02-20 12:39:00,
2013-02-20 07:44:00,31.1,25.4,29.98,North,0,0.0,0.0,79,0.00,,,0.00,WUHU216HW,2013-02-20 12:44:00,
2013-02-20 07:49:00,31.1,25.4,29.98,North,0,0.0,0.0,79,0.00,,,0.00,WUHU216HW,2013-02-20 12:49:00,
2013-02-20 07:54:00,31.3,25.6,29.98,North,0,0.0,0.0,79,0.00,,,0.00,WUHU216HW,2013-02-20 12:54:00,
2013-02-20 07:59:00,31.3,25.6,29.98,North,0,0.0,0.0,79,0.00,,,0.00,WUHU216HW,2013-02-20 12:59:00,
2013-02-20 08:04:00,31.3,25.9,29.98,North,0,0.0,0.0,80,0.00,,,0.00,WUHU216HW,2013-02-20 13:04:00,
2013-02-20 08:10:00,31.7,26.3,29.98,North,0,0.0,0.0,80,0.00,,,0.00,WUHU216HW,2013-02-20 13:10:00,
2013-02-20 08:15:00,31.9,26.5,29.98,North,0,0.0,0.0,80,0.00,,,0.00,WUHU216HW,2013-02-20 13:15:00,
2013-02-20 08:20:00,32.0,26.9,29.99,North,0,0.0,0.0,81,0.00,,,0.00,WUHU216HW,2013-02-20 13:20:00,
2013-02-20 08:25:00,32.2,27.1,29.99,North,0,0.0,0.0,81,0.00,,,0.00,WUHU216HW,2013-02-20 13:25:00,
2013-02-20 08:30:00,32.4,27.5,29.99,North,0,0.0,0.0,82,0.00,,,0.00,WUHU216HW,2013-02-20 13:30:00,
2013-02-20 08:35:00,32.8,27.9,29.99,North,0,0.0,0.0,82,0.00,,,0.00,WUHU216HW,2013-02-20 13:35:00,
2013-02-20 08:40:00,32.9,27.7,29.99,North,0,0.0,0.0,81,0.00,,,0.00,WUHU216HW,2013-02-20 13:40:00,
2013-02-20 08:46:00,33.3,28.1,29.99,North,0,0.0,0.0,81,0.00,,,0.00,WUHU216HW,2013-02-20 13:46:00,
2013-02-20 08:51:00,33.7,28.4,29.99,North,0,0.0,0.0,81,0.00,,,0.00,WUHU216HW,2013-02-20 13:51:00,
2013-02-20 08:56:00,34.2,29.5,29.99,North,0,0.0,0.0,83,0.00,,,0.00,WUHU216HW,2013-02-20 13:56:00,
2013-02-20 09:01:00,34.7,30.1,29.99,North,0,0.0,0.0,83,0.00,,,0.00,WUHU216HW,2013-02-20 14:01:00,
2013-02-20 09:06:00,35.3,30.6,29.99,North,0,0.0,0.0,83,0.00,,,0.00,WUHU216HW,2013-02-20 14:06:00,
2013-02-20 09:11:00,35.8,30.8,29.99,North,0,0.0,0.0,82,0.00,,,0.00,WUHU216HW,2013-02-20 14:11:00,
2013-02-20 09:16:00,36.4,31.1,29.99,North,0,0.0,0.0,81,0.00,,,0.00,WUHU216HW,2013-02-20 14:16:00,
2013-02-20 09:21:00,36.9,31.3,29.99,North,0,0.0,0.0,80,0.00,,,0.00,WUHU216HW,2013-02-20 14:21:00,
2013-02-20 09:26:00,37.3,31.3,29.99,North,0,0.0,0.0,79,0.00,,,0.00,WUHU216HW,2013-02-20 14:26:00,
2013-02-20 09:32:00,37.8,31.6,29.99,North,0,0.0,0.0,78,0.00,,,0.00,WUHU216HW,2013-02-20 14:32:00,
2013-02-20 09:37:00,38.2,31.6,29.99,North,0,0.0,0.0,77,0.00,,,0.00,WUHU216HW,2013-02-20 14:37:00,
2013-02-20 09:42:00,38.5,32.0,29.99,North,0,0.0,0.0,77,0.00,,,0.00,WUHU216HW,2013-02-20 14:42:00,
2013-02-20 09:47:00,38.9,32.3,30.00,North,0,0.0,0.0,77,0.00,,,0.00,WUHU216HW,2013-02-20 14:47:00,
2013-02-20 09:52:00,39.2,32.7,30.00,North,0,0.0,0.0,77,0.00,,,0.00,WUHU216HW,2013-02-20 14:52:00,
2013-02-20 09:57:00,39.6,32.3,30.00,North,0,0.0,0.0,75,0.00,,,0.00,WUHU216HW,2013-02-20 14:57:00,
2013-02-20 10:02:00,40.1,32.5,30.00,North,0,0.0,0.0,74,0.00,,,0.00,WUHU216HW,2013-02-20 15:02:00,
2013-02-20 10:07:00,40.5,32.5,30.00,North,0,0.0,0.0,73,0.00,,,0.00,WUHU216HW,2013-02-20 15:07:00,
2013-02-20 10:12:00,41.0,32.7,30.00,North,0,0.0,0.0,72,0.00,,,0.00,WUHU216HW,2013-02-20 15:12:00,
2013-02-20 10:18:00,41.6,33.0,30.00,North,0,0.0,0.0,71,0.00,,,0.00,WUHU216HW,2013-02-20 15:18:00,
2013-02-20 10:23:00,42.3,33.7,30.00,North,0,0.0,0.0,71,0.00,,,0.00,WUHU216HW,2013-02-20 15:23:00,
2013-02-20 10:28:00,42.8,33.5,30.00,North,0,0.0,0.0,69,0.00,,,0.00,WUHU216HW,2013-02-20 15:28:00,
2013-02-20 10:33:00,43.6,33.8,30.00,North,0,0.0,0.0,68,0.00,,,0.00,WUHU216HW,2013-02-20 15:33:00,
2013-02-20 10:38:00,44.1,33.9,30.00,North,0,0.0,0.0,67,0.00,,,0.00,WUHU216HW,2013-02-20 15:38:00,
2013-02-20 10:43:00,44.8,33.4,30.01,North,0,0.0,0.0,64,0.00,,,0.00,WUHU216HW,2013-02-20 15:43:00,
2013-02-20 10:48:00,45.0,33.1,30.01,North,0,0.0,0.0,63,0.00,,,0.00,WUHU216HW,2013-02-20 15:48:00,
2013-02-20 10:54:00,45.4,33.5,30.00,North,0,0.0,0.0,63,0.00,,,0.00,WUHU216HW,2013-02-20 15:54:00,
2013-02-20 10:59:00,45.7,33.0,30.00,North,0,0.0,0.0,61,0.00,,,0.00,WUHU216HW,2013-02-20 15:59:00,
2013-02-20 11:04:00,46.1,32.9,30.00,North,0,0.0,0.0,60,0.00,,,0.00,WUHU216HW,2013-02-20 16:04:00,
2013-02-20 11:09:00,46.4,33.3,29.99,North,0,0.0,0.0,60,0.00,,,0.00,WUHU216HW,2013-02-20 16:09:00,
2013-02-20 11:14:00,47.0,33.8,29.99,North,0,0.0,0.0,60,0.00,,,0.00,WUHU216HW,2013-02-20 16:14:00,
2013-02-20 11:19:00,47.2,34.0,29.99,North,0,0.0,0.0,60,0.00,,,0.00,WUHU216HW,2013-02-20 16:19:00,
2013-02-20 11:24:00,47.5,33.9,29.99,North,0,0.0,0.0,59,0.00,,,0.00,WUHU216HW,2013-02-20 16:24:00,
2013-02-20 11:29:00,47.7,33.7,29.99,North,0,0.0,0.0,58,0.00,,,0.00,WUHU216HW,2013-02-20 16:29:00,
2013-02-20 11:34:00,48.1,34.0,29.99,North,0,0.0,0.0,58,0.00,,,0.00,WUHU216HW,2013-02-20 16:34:00,
2013-02-20 11:39:00,48.2,33.2,29.99,North,0,0.0,0.0,56,0.00,,,0.00,WUHU216HW,2013-02-20 16:39:00,
2013-02-20 11:44:00,48.6,33.1,29.99,North,0,0.0,0.0,55,0.00,,,0.00,WUHU216HW,2013-02-20 16:44:00,
2013-02-20 11:49:00,48.6,33.6,29.99,North,0,0.0,0.0,56,0.00,,,0.00,WUHU216HW,2013-02-20 16:49:00,
2013-02-20 11:54:00,49.1,33.7,29.99,North,0,0.0,0.0,55,0.00,,,0.00,WUHU216HW,2013-02-20 16:54:00,
2013-02-20 12:00:00,49.3,33.3,29.99,North,0,0.0,0.0,54,0.00,,,0.00,WUHU216HW,2013-02-20 17:00:00,
2013-02-20 12:05:00,49.5,33.0,29.98,North,0,0.0,0.0,53,0.00,,,0.00,WUHU216HW,2013-02-20 17:05:00,
2013-02-20 12:10:00,49.9,33.8,29.98,North,0,0.0,0.0,54,0.00,,,0.00,WUHU216HW,2013-02-20 17:10:00,
2013-02-20 12:15:00,50.2,34.2,29.97,North,0,0.0,0.0,54,0.00,,,0.00,WUHU216HW,2013-02-20 17:15:00,
2013-02-20 12:20:00,50.4,34.4,29.97,North,0,0.0,0.0,54,0.00,,,0.00,WUHU216HW,2013-02-20 17:20:00,
2013-02-20 12:25:00,50.4,34.4,29.97,North,0,0.0,0.0,54,0.00,,,0.00,WUHU216HW,2013-02-20 17:25:00,
2013-02-20 13:00:00,52.6,34.9,29.96,North,0,0.0,0.0,51,0.00,,,0.00,WUHU216HW,2013-02-20 18:00:00,
2013-02-20 13:05:00,52.6,34.9,29.96,North,0,0.0,0.0,51,0.00,,,0.00,WUHU216HW,2013-02-20 18:05:00,
2013-02-20 14:00:00,54.0,33.0,29.94,North,0,0.0,0.0,45,0.00,,,0.00,WUHU216HW,2013-02-20 19:00:00,
2013-02-20 14:05:00,54.0,33.0,29.94,North,0,0.0,0.0,45,0.00,,,0.00,WUHU216HW,2013-02-20 19:05:00,
2013-02-20 15:00:00,54.7,31.4,29.91,North,0,0.0,0.0,41,0.00,,,0.00,WUHU216HW,2013-02-20 20:00:00,
2013-02-20 15:05:00,54.7,31.4,29.91,North,0,0.0,0.0,41,0.00,,,0.00,WUHU216HW,2013-02-20 20:05:00,
2013-02-20 16:00:00,55.6,31.7,29.93,North,0,0.0,0.0,40,0.00,,,0.00,WUHU216HW,2013-02-20 21:00:00,
2013-02-20 16:05:00,55.6,31.7,29.93,North,0,0.0,0.0,40,0.00,,,0.00,WUHU216HW,2013-02-20 21:05:00,
2013-02-20 17:00:00,55.1,31.1,29.93,North,0,0.0,0.0,40,0.00,,,0.00,WUHU216HW,2013-02-20 22:00:00,
2013-02-20 17:05:00,54.9,31.1,29.93,North,0,0.0,0.0,40,0.00,,,0.00,WUHU216HW,2013-02-20 22:05:00,
2013-02-20 17:10:00,54.7,30.9,29.94,North,0,0.0,0.0,40,0.00,,,0.00,WUHU216HW,2013-02-20 22:10:00,
2013-02-20 17:15:00,54.7,31.4,29.94,North,0,0.0,0.0,41,0.00,,,0.00,WUHU216HW,2013-02-20 22:15:00,
2013-02-20 17:20:00,54.5,31.2,29.94,North,0,0.0,0.0,41,0.00,,,0.00,WUHU216HW,2013-02-20 22:20:00,
2013-02-20 17:21:00,54.5,31.2,29.94,North,0,0.0,0.0,41,0.00,,,0.00,WUHU216HW,2013-02-20 22:21:00,
2013-02-20 17:26:00,54.5,31.2,29.94,North,0,0.0,0.0,41,0.00,,,0.00,WUHU216HW,2013-02-20 22:26:00,
2013-02-20 18:00:00,53.5,32.0,29.95,North,0,0.0,0.0,44,0.00,,,0.00,WUHU216HW,2013-02-20 23:00:00,
2013-02-20 18:05:00,53.3,31.8,29.96,North,0,0.0,0.0,44,0.00,,,0.00,WUHU216HW,2013-02-20 23:05:00,
2013-02-20 18:10:00,52.9,32.1,29.96,North,0,0.0,0.0,45,0.00,,,0.00,WUHU216HW,2013-02-20 23:10:00,
2013-02-20 18:16:00,52.7,31.9,29.97,North,0,0.0,0.0,45,0.00,,,0.00,WUHU216HW,2013-02-20 23:16:00,
2013-02-20 18:21:00,52.6,31.1,29.97,North,0,0.0,0.0,44,0.00,,,0.00,WUHU216HW,2013-02-20 23:21:00,
2013-02-20 18:26:00,52.2,30.8,29.97,North,0,0.0,0.0,44,0.00,,,0.00,WUHU216HW,2013-02-20 23:26:00,
2013-02-20 18:31:00,52.0,30.7,29.97,North,0,0.0,0.0,44,0.00,,,0.00,WUHU216HW,2013-02-20 23:31:00,
2013-02-20 18:36:00,51.8,30.0,29.97,North,0,0.0,0.0,43,0.00,,,0.00,WUHU216HW,2013-02-20 23:36:00,
2013-02-20 18:41:00,51.5,29.6,29.98,North,0,0.0,0.0,43,0.00,,,0.00,WUHU216HW,2013-02-20 23:41:00,
2013-02-20 18:46:00,51.5,30.2,29.98,North,0,0.0,0.0,44,0.00,,,0.00,WUHU216HW,2013-02-20 23:46:00,
2013-02-20 18:51:00,51.3,30.0,29.98,North,0,0.0,0.0,44,0.00,,,0.00,WUHU216HW,2013-02-20 23:51:00,
2013-02-20 18:56:00,50.9,29.7,29.98,North,0,0.0,0.0,44,0.00,,,0.00,WUHU216HW,2013-02-20 23:56:00,
2013-02-20 19:02:00,50.8,29.5,29.98,North,0,0.0,0.0,44,0.00,,,0.00,WUHU216HW,2013-02-21 00:02:00,
2013-02-20 19:07:00,50.6,29.9,29.98,North,0,0.0,0.0,45,0.00,,,0.00,WUHU216HW,2013-02-21 00:07:00,
2013-02-20 19:12:00,50.4,30.3,29.97,North,0,0.0,0.0,46,0.00,,,0.00,WUHU216HW,2013-02-21 00:12:00,
2013-02-20 19:17:00,50.0,30.0,29.97,North,0,0.0,0.0,46,0.00,,,0.00,WUHU216HW,2013-02-21 00:17:00,
2013-02-20 19:22:00,49.9,30.3,29.97,North,0,0.0,0.0,47,0.00,,,0.00,WUHU216HW,2013-02-21 00:22:00,
2013-02-20 19:27:00,49.5,30.6,29.96,North,0,0.0,0.0,48,0.00,,,0.00,WUHU216HW,2013-02-21 00:27:00,
2013-02-20 19:32:00,49.3,30.4,29.96,North,0,0.0,0.0,48,0.00,,,0.00,WUHU216HW,2013-02-21 00:32:00,
2013-02-20 19:37:00,48.8,29.9,29.96,North,0,0.0,0.0,48,0.00,,,0.00,WUHU216HW,2013-02-21 00:37:00,
2013-02-20 19:42:00,48.4,30.1,29.96,North,0,0.0,0.0,49,0.00,,,0.00,WUHU216HW,2013-02-21 00:42:00,
2013-02-20 19:47:00,48.1,29.7,29.96,North,0,0.0,0.0,49,0.00,,,0.00,WUHU216HW,2013-02-21 00:47:00,
2013-02-20 19:52:00,47.7,30.0,29.96,North,0,0.0,0.0,50,0.00,,,0.00,WUHU216HW,2013-02-21 00:52:00,
2013-02-20 19:57:00,47.3,29.6,29.96,North,0,0.0,0.0,50,0.00,,,0.00,WUHU216HW,2013-02-21 00:57:00,
2013-02-20 20:02:00,47.0,29.7,29.97,North,0,0.0,0.0,51,0.00,,,0.00,WUHU216HW,2013-02-21 01:02:00,
2013-02-20 20:07:00,46.6,29.9,29.97,North,0,0.0,0.0,52,0.00,,,0.00,WUHU216HW,2013-02-21 01:07:00,
2013-02-20 20:12:00,46.4,29.7,29.97,North,0,0.0,0.0,52,0.00,,,0.00,WUHU216HW,2013-02-21 01:12:00,
2013-02-20 20:18:00,46.1,29.8,29.97,North,0,0.0,0.0,53,0.00,,,0.00,WUHU216HW,2013-02-21 01:18:00,
2013-02-20 20:23:00,45.9,30.2,29.98,North,0,0.0,0.0,54,0.00,,,0.00,WUHU216HW,2013-02-21 01:23:00,
2013-02-20 20:28:00,45.7,30.0,29.98,North,0,0.0,0.0,54,0.00,,,0.00,WUHU216HW,2013-02-21 01:28:00,
2013-02-20 20:33:00,45.2,29.4,29.99,North,0,0.0,0.0,54,0.00,,,0.00,WUHU216HW,2013-02-21 01:33:00,
2013-02-20 20:38:00,45.0,29.8,29.99,North,0,0.0,0.0,55,0.00,,,0.00,WUHU216HW,2013-02-21 01:38:00,
2013-02-20 20:43:00,45.0,29.8,29.99,North,0,0.0,0.0,55,0.00,,,0.00,WUHU216HW,2013-02-21 01:43:00,
2013-02-20 20:48:00,44.6,29.4,29.99,North,0,0.0,0.0,55,0.00,,,0.00,WUHU216HW,2013-02-21 01:48:00,
2013-02-20 20:53:00,44.5,29.7,29.98,North,0,0.0,0.0,56,0.00,,,0.00,WUHU216HW,2013-02-21 01:53:00,
2013-02-20 20:58:00,44.3,30.0,29.98,North,0,0.0,0.0,57,0.00,,,0.00,WUHU216HW,2013-02-21 01:58:00,
2013-02-20 21:03:00,44.1,29.8,29.98,North,0,0.0,0.0,57,0.00,,,0.00,WUHU216HW,2013-02-21 02:03:00,
2013-02-20 21:08:00,43.7,29.4,29.98,North,0,0.0,0.0,57,0.00,,,0.00,WUHU216HW,2013-02-21 02:08:00,
2013-02-20 21:13:00,43.4,29.5,29.98,North,0,0.0,0.0,58,0.00,,,0.00,WUHU216HW,2013-02-21 02:13:00,
2013-02-20 21:18:00,43.0,29.6,29.98,North,0,0.0,0.0,59,0.00,,,0.00,WUHU216HW,2013-02-21 02:18:00,
2013-02-20 21:23:00,42.8,29.9,29.98,North,0,0.0,0.0,60,0.00,,,0.00,WUHU216HW,2013-02-21 02:23:00,
2013-02-20 21:29:00,42.8,29.9,29.99,North,0,0.0,0.0,60,0.00,,,0.00,WUHU216HW,2013-02-21 02:29:00,
2013-02-20 21:34:00,42.7,30.2,29.99,North,0,0.0,0.0,61,0.00,,,0.00,WUHU216HW,2013-02-21 02:34:00,
2013-02-20 21:39:00,42.3,30.2,29.99,North,0,0.0,0.0,62,0.00,,,0.00,WUHU216HW,2013-02-21 02:39:00,
2013-02-20 21:44:00,41.9,29.9,29.99,North,0,0.0,0.0,62,0.00,,,0.00,WUHU216HW,2013-02-21 02:44:00,
2013-02-20 21:49:00,41.6,29.5,29.99,North,0,0.0,0.0,62,0.00,,,0.00,WUHU216HW,2013-02-21 02:49:00,
2013-02-20 21:54:00,41.4,29.7,29.99,North,0,0.0,0.0,63,0.00,,,0.00,WUHU216HW,2013-02-21 02:54:00,
2013-02-20 21:59:00,41.2,29.5,29.99,North,0,0.0,0.0,63,0.00,,,0.00,WUHU216HW,2013-02-21 02:59:00,
2013-02-20 22:04:00,41.0,29.8,29.99,North,0,0.0,0.0,64,0.00,,,0.00,WUHU216HW,2013-02-21 03:04:00,
2013-02-20 22:09:00,40.9,29.6,30.00,North,0,0.0,0.0,64,0.00,,,0.00,WUHU216HW,2013-02-21 03:09:00,
2013-02-20 22:14:00,40.7,29.4,30.00,North,0,0.0,0.0,64,0.00,,,0.00,WUHU216HW,2013-02-21 03:14:00,
2013-02-20 22:20:00,40.7,29.8,30.00,North,0,0.0,0.0,65,0.00,,,0.00,WUHU216HW,2013-02-21 03:20:00,
2013-02-20 22:25:00,40.3,29.4,30.01,North,0,0.0,0.0,65,0.00,,,0.00,WUHU216HW,2013-02-21 03:25:00,
2013-02-20 22:30:00,40.1,29.6,30.01,North,0,0.0,0.0,66,0.00,,,0.00,WUHU216HW,2013-02-21 03:30:00,
2013-02-20 22:35:00,40.1,29.6,30.00,North,0,0.0,0.0,66,0.00,,,0.00,WUHU216HW,2013-02-21 03:35:00,
2013-02-20 22:40:00,40.0,29.4,30.00,North,0,0.0,0.0,66,0.00,,,0.00,WUHU216HW,2013-02-21 03:40:00,
2013-02-20 22:45:00,39.8,28.9,30.00,North,0,0.0,0.0,65,0.00,,,0.00,WUHU216HW,2013-02-21 03:45:00,
2013-02-20 22:50:00,39.6,28.4,30.00,North,0,0.0,0.0,64,0.00,,,0.00,WUHU216HW,2013-02-21 03:50:00,
2013-02-20 22:55:00,39.8,28.2,30.00,North,0,0.0,0.0,63,0.00,,,0.00,WUHU216HW,2013-02-21 03:55:00,
2013-02-20 23:00:00,40.0,28.4,30.00,North,0,0.0,0.0,63,0.00,,,0.00,WUHU216HW,2013-02-21 04:00:00,
2013-02-20 23:05:00,40.0,28.4,30.00,North,0,0.0,0.0,63,0.00,,,0.00,WUHU216HW,2013-02-21 04:05:00,
2013-02-20 23:10:00,40.0,28.4,30.00,North,0,0.0,0.0,63,0.00,,,0.00,WUHU216HW,2013-02-21 04:10:00,
2013-02-20 23:15:00,40.0,28.4,30.00,North,0,0.0,0.0,63,0.00,,,0.00,WUHU216HW,2013-02-21 04:15:00,
2013-02-20 23:20:00,40.0,27.9,30.00,North,0,0.0,0.0,62,0.00,,,0.00,WUHU216HW,2013-02-21 04:20:00,
2013-02-20 23:25:00,40.0,27.9,30.00,North,0,0.0,0.0,62,0.00,,,0.00,WUHU216HW,2013-02-21 04:25:00,
2013-02-20 23:30:00,40.0,27.9,30.00,North,0,0.0,0.0,62,0.00,,,0.00,WUHU216HW,2013-02-21 04:30:00,
2013-02-20 23:35:00,39.8,27.4,30.00,North,0,0.0,0.0,61,0.00,,,0.00,WUHU216HW,2013-02-21 04:35:00,
2013-02-20 23:40:00,40.0,27.2,30.00,North,0,0.0,0.0,60,0.00,,,0.00,WUHU216HW,2013-02-21 04:40:00,
2013-02-20 23:45:00,40.0,26.3,29.99,North,0,0.0,0.0,58,0.00,,,0.00,WUHU216HW,2013-02-21 04:45:00,
2013-02-20 23:51:00,40.1,26.0,30.00,North,0,0.0,0.0,57,0.00,,,0.00,WUHU216HW,2013-02-21 04:51:00,
2013-02-20 23:56:00,40.1,26.0,30.00,North,0,0.0,0.0,57,0.00,,,0.00,WUHU216HW,2013-02-21 04:56:00,